Regional Weather Roundup
Issued by NWS Jackson, KY

Home | Current Version | Previous Version | Graphics & Text | Print | Product List | Glossary On
Versions: 1 2 3 4 5 6 7 8 9 10 11 12 13 14 15 16 17 18 19 20 21 22 23 24 25 26 27 28 29 30 31 32 33 34 35 36 37 38 39 40 41 42 43 44 45 46 47 48 49 50
000
ASUS43 KJKL 310410
RWRJKL

EAST KENTUCKY HOURLY WEATHER ROUNDUP
NATIONAL WEATHER SERVICE JACKSON KY
1200 AM EDT MON AUG 31 2015

NOTE: "FAIR" INDICATES FEW OR NO CLOUDS BELOW 12,000 FEET WITH
NO SIGNIFICANT WEATHER AND/OR OBSTRUCTIONS TO VISIBILITY.

* THESE REPORTS ARE NOT UNDER NWS QUALITY CONTROL AND MAY NOT
  REPORT WEATHER SUCH AS PRECIPITATION AND FOG.

KYZ079-080-083-085-087-088-110-112-115-119-120-310500
...EASTERN KENTUCKY...

CITY           SKY/WX    TMP DP  RH WIND       PRES   REMARKS
JACKSON        CLOUDY    73  66  78 CALM      30.13F
LONDON         CLOUDY    71  65  81 CALM      30.13S
SOMERSET*      CLOUDY    68  68 100 CALM      30.12F FOG
MONTICELLO*    PTCLDY    66  66 100 CALM      30.14F FOG
WILLIAMSBURG*  CLEAR     64  64 100 CALM      30.13S
MIDDLESBORO*   CLOUDY    68  68  99 CALM      30.14S
HAZARD APT*    CLEAR     70  70 100 CALM      30.13
BLACK MTN*       N/A     61  61 100 CALM        N/A
PIKEVILLE APT* PTCLDY    72  66  83 CALM      30.14F
BIG SANDY*     CLOUDY    70  67  92 CALM      30.13F
MOREHEAD APT*  MOCLDY    70  66  88 CALM      30.14S
$$

KYZ035-036-041-042-044-050-067-078-099-310500
...CENTRAL KENTUCKY...

CITY           SKY/WX    TMP DP  RH WIND       PRES   REMARKS
MT STERLING*   MOCLDY    66  64  94 CALM      30.13F
FLEMING/MASON* CLEAR     70  64  83 S5        30.13R
DANVILLE*      PTCLDY    66  63  88 CALM      30.12F
RICHMOND*      PTCLDY    66  64  94 CALM      30.12R
LEXINGTON      LGT RAIN  73  68  84 S3        30.11S
FRANKFORT      MOCLDY    72  67  84 S5        30.09F
$$

KYZ091>093-OHZ055-061-077-WVZ005-015-034-035-042-310500
...SOUTHERN OHIO/WEST VIRGINIA...

CITY           SKY/WX    TMP DP  RH WIND       PRES   REMARKS
COVINGTON      MOCLDY    72  67  84 S6        30.09S
COLUMBUS       MOCLDY    73  66  78 S5        30.08S
DAYTON         PTCLDY    70  65  84 S6        30.10R
WILMINGTON     CLEAR     68  64  87 CALM      30.09S
HUNTINGTON     MOCLDY    69  66  90 CALM      30.11S
CHARLESTON     MOCLDY    69  67  93 CALM      30.12S FOG
PINEVILLE*     CLOUDY    67  67 100 MISG      30.21S FOG
BECKLEY        CLOUDY    68  60  75 S7        30.20F
BLUEFIELD      CLOUDY    70  58  65 SE5       30.22S
$$

VAZ002-007-008-TNZ017-027-036-066-071-310500
...SOUTHWEST VIRGINIA/EAST TENNESSEE...

CITY           SKY/WX    TMP DP  RH WIND       PRES   REMARKS
WISE*          CLOUDY    68  59  73 S3        30.22S
JONESVILLE*    CLOUDY    68  64  88 CALM      30.18S
ABINGDON*      CLOUDY    70  60  71 CALM      30.18S
BRISTOL        CLOUDY    69  63  81 VRB3      30.16S
KNOXVILLE      CLOUDY    71  63  75 W3        30.10R
OAK RIDGE      CLOUDY    72  67  84 CALM      30.12S
CROSSVILLE     MOCLDY    70  65  84 CALM      30.16S
NASHVILLE      MOCLDY    71  64  78 CALM      30.10S
$$

...KEY TO REMARKS...
VSB - VISIBILITY IN MILES
WCI - WIND CHILL INDEX
HX  - HEAT INDEX

$$



USA.gov is the U.S. government's official web portal to all federal, state and local government web resources and services.